Location: Bieujac
(44.5398°N, 0.1549°W)
Time: 08:47:36
(UTC+00:00)

Meteor 1-31 Rocket - Pass Details

Date: 17 November 2019
Orbit: 522 x 546 km, 97.6° (Epoch: 15 December)

Event Time Altitude Azimuth Distance (km) Brightness Sun altitude
Rises 05:30:11 0° 0° (N) 2,678 6.2 -15.8°
Reaches altitude 10° 05:32:33 10° 347° (NNW) 1,787 5.2 -15.4°
Enters shadow 05:34:45 22° 316° (NW) 1,190 4.0 -15.0°
